| time (UTC) | temp F | wind direction | speed knots | gust knots | rain 1hr in | rain 24hr in | rain mn in | humidity % | barometer mb |
| 20260504081927 | 47 | 330 | 1.7 | 2.6 | 0.00 | 0.00 | 0.00 | 61 | 1014.7 |
| 20260504081424 | 47 | 282 | 3.5 | 5.2 | 0.00 | 0.00 | 0.00 | 60 | 1014.8 |
| 20260504080920 | 47 | 285 | 1.7 | 4.3 | 0.00 | 0.00 | 0.00 | 60 | 1014.8 |
| 20260504080417 | 47 | 340 | 0.9 | 2.6 | 0.00 | 0.00 | 0.00 | 61 | 1014.6 |
| 20260504070344 | 48 | 286 | 5.2 | 5.2 | 0.00 | 0.00 | 0.00 | 58 | 1015.0 |
| 20260504050732 | 50 | 294 | 5.2 | 7.0 | 0.00 | 0.00 | 0.00 | 54 | 1014.9 |
| 20260504050229 | 50 | 269 | 1.7 | 1.7 | 0.00 | 0.00 | 0.00 | 54 | 1015.0 |
| 20260504045726 | 50 | 271 | 2.6 | 4.3 | 0.00 | 0.00 | 0.00 | 55 | 1015.0 |
| 20260504045221 | 50 | 266 | 5.2 | 7.8 | 0.00 | 0.00 | 0.00 | 55 | 1014.8 |
| 20260504044719 | 50 | 245 | 3.5 | 5.2 | 0.00 | 0.00 | 0.00 | 55 | 1015.0 |
| 20260504044217 | 50 | 292 | 4.3 | 4.3 | 0.00 | 0.00 | 0.00 | 55 | 1015.1 |
| 20260504043714 | 50 | 29 | 6.1 | 9.6 | 0.00 | 0.00 | 0.00 | 55 | 1014.8 |
| 20260504043210 | 50 | 284 | 2.6 | 2.6 | 0.00 | 0.00 | 0.00 | 56 | 1014.8 |
| 20260504042708 | 50 | 274 | 4.3 | 7.0 | 0.00 | 0.00 | 0.00 | 55 | 1014.7 |
| 20260504042204 | 50 | 214 | 2.6 | 4.3 | 0.00 | 0.00 | 0.00 | 54 | 1014.9 |
| 20260504041700 | 50 | 229 | 1.7 | 4.3 | 0.00 | 0.00 | 0.00 | 54 | 1015.0 |
| 20260504041156 | 50 | 288 | 2.6 | 5.2 | 0.00 | 0.00 | 0.00 | 53 | 1014.8 |
| 20260504040653 | 50 | 264 | 7.8 | 10.4 | 0.00 | 0.00 | 0.00 | 53 | 1014.9 |
| 20260504040150 | 51 | 316 | 5.2 | 7.0 | 0.00 | 0.00 | 0.00 | 53 | 1014.7 |
| 20260504035647 | 51 | 308 | 5.2 | 7.8 | 0.00 | 0.00 | 0.00 | 53 | 1014.7 |
| 20260504035144 | 51 | 326 | 3.5 | 4.3 | 0.00 | 0.00 | 0.00 | 53 | 1014.7 |
| 20260504034641 | 50 | 317 | 1.7 | 4.3 | 0.00 | 0.00 | 0.00 | 55 | 1014.8 |
| 20260504034138 | 51 | 295 | 1.7 | 2.6 | 0.00 | 0.00 | 0.00 | 54 | 1014.6 |
| 20260504033636 | 51 | 296 | 2.6 | 4.3 | 0.00 | 0.00 | 0.00 | 53 | 1014.6 |
| 20260504033133 | 51 | 232 | 1.7 | 2.6 | 0.00 | 0.00 | 0.00 | 53 | 1014.7 |
| 20260504032629 | 51 | 199 | 1.7 | 2.6 | 0.00 | 0.00 | 0.00 | 53 | 1014.8 |
| 20260504032127 | 51 | 254 | 4.3 | 5.2 | 0.00 | 0.00 | 0.00 | 53 | 1014.5 |
| 20260504031624 | 51 | 321 | 1.7 | 2.6 | 0.00 | 0.00 | 0.00 | 53 | 1014.5 |
| 20260504031120 | 51 | 223 | 0.0 | 1.7 | 0.00 | 0.00 | 0.00 | 54 | 1014.5 |
| 20260504030617 | 52 | 289 | 1.7 | 2.6 | 0.00 | 0.00 | 0.00 | 50 | 1014.7 |
| 20260504030114 | 52 | 302 | 3.5 | 4.3 | 0.00 | 0.00 | 0.00 | 50 | 1014.3 |
| 20260504025610 | 51 | 250 | 0.9 | 1.7 | 0.00 | 0.00 | 0.00 | 51 | 1014.8 |
| 20260504025108 | 51 | 351 | 1.7 | 1.7 | 0.00 | 0.00 | 0.00 | 51 | 1014.2 |
| 20260504024605 | 52 | 317 | 0.9 | 2.6 | 0.00 | 0.00 | 0.00 | 51 | 1014.3 |
| 20260504024101 | 52 | 285 | 2.6 | 4.3 | 0.00 | 0.00 | 0.00 | 50 | 1014.3 |
| 20260504023557 | 52 | 350 | 2.6 | 2.6 | 0.00 | 0.00 | 0.00 | 49 | 1014.5 |
| 20260504023053 | 52 | 259 | 2.6 | 4.3 | 0.00 | 0.00 | 0.00 | 51 | 1014.3 |
| 20260504022550 | 53 | 301 | 1.7 | 2.6 | 0.00 | 0.00 | 0.00 | 48 | 1014.7 |
| 20260504022046 | 53 | 282 | 1.7 | 1.7 | 0.00 | 0.00 | 0.00 | 47 | 1014.3 |
| 20260504021544 | 53 | 300 | 0.9 | 1.7 | 0.00 | 0.00 | 0.00 | 48 | 1014.5 |
| 20260504021040 | 53 | 274 | 1.7 | 2.6 | 0.00 | 0.00 | 0.00 | 47 | 1014.6 |
| 20260504020537 | 53 | 276 | 2.6 | 4.3 | 0.00 | 0.00 | 0.00 | 47 | 1014.2 |
| 20260504020034 | 53 | 300 | 3.5 | 4.3 | 0.00 | 0.00 | 0.00 | 47 | 1014.5 |
| 20260504015530 | 53 | 309 | 0.9 | 1.7 | 0.00 | 0.00 | 0.00 | 47 | 1014.2 |
| 20260504015026 | 53 | 250 | 0.9 | 1.7 | 0.00 | 0.00 | 0.00 | 47 | 1014.3 |
| 20260504014523 | 53 | 297 | 1.7 | 2.6 | 0.00 | 0.00 | 0.00 | 46 | 1014.5 |
| 20260504014020 | 54 | 309 | 0.9 | 1.7 | 0.00 | 0.00 | 0.00 | 46 | 1014.3 |
| 20260504013518 | 54 | 305 | 4.3 | 4.3 | 0.00 | 0.00 | 0.00 | 45 | 1014.5 |
| 20260504013014 | 54 | 312 | 1.7 | 2.6 | 0.00 | 0.00 | 0.00 | 45 | 1014.2 |
| 20260504012512 | 54 | 341 | 2.6 | 2.6 | 0.00 | 0.00 | 0.00 | 44 | 1014.1 |
| 20260504012010 | 54 | 274 | 2.6 | 2.6 | 0.00 | 0.00 | 0.00 | 44 | 1014.1 |
| 20260504011506 | 54 | 244 | 0.9 | 1.7 | 0.00 | 0.00 | 0.00 | 44 | 1014.2 |
| 20260504011002 | 55 | 278 | 0.9 | 1.7 | 0.00 | 0.00 | 0.00 | 44 | 1013.9 |
| 20260504010458 | 55 | 307 | 1.7 | 1.7 | 0.00 | 0.00 | 0.00 | 44 | 1014.0 |
| 20260504005954 | 55 | 1 | 2.6 | 2.6 | 0.00 | 0.00 | 0.00 | 43 | 1014.0 |
| 20260504005451 | 55 | 333 | 1.7 | 2.6 | 0.00 | 0.00 | 0.00 | 44 | 1014.0 |
| 20260504004948 | 55 | 317 | 4.3 | 5.2 | 0.00 | 0.00 | 0.00 | 43 | 1013.9 |
| 20260504004446 | 55 | 312 | 3.5 | 5.2 | 0.00 | 0.00 | 0.00 | 42 | 1013.9 |
| 20260504003943 | 55 | 333 | 2.6 | 4.3 | 0.00 | 0.00 | 0.00 | 42 | 1013.9 |
| 20260504003439 | 55 | 326 | 2.6 | 2.6 | 0.00 | 0.00 | 0.00 | 42 | 1013.8 |
| 20260504002936 | 55 | 316 | 2.6 | 4.3 | 0.00 | 0.00 | 0.00 | 43 | 1014.0 |
| 20260504002433 | 55 | 305 | 2.6 | 2.6 | 0.00 | 0.00 | 0.00 | 43 | 1013.8 |
| 20260504001930 | 56 | 329 | 2.6 | 4.3 | 0.00 | 0.00 | 0.00 | 42 | 1013.6 |
| 20260504001427 | 56 | 323 | 1.7 | 2.6 | 0.00 | 0.00 | 0.00 | 42 | 1013.7 |
| 20260504000924 | 56 | 307 | 3.5 | 4.3 | 0.00 | 0.00 | 0.00 | 41 | 1013.4 |
| 20260504000423 | 56 | 289 | 2.6 | 2.6 | 0.00 | 0.00 | 0.00 | 41 | 1013.7 |
| 20260503235918 | 57 | 269 | 0.9 | 1.7 | 0.00 | 0.00 | 0.00 | 42 | 1013.4 |
| 20260503235416 | 57 | 356 | 2.6 | 4.3 | 0.00 | 0.00 | 0.00 | 40 | 1013.3 |
| 20260503234914 | 57 | 31 | 7.0 | 7.8 | 0.00 | 0.00 | 0.00 | 40 | 1013.3 |
| 20260503234411 | 57 | 140 | 1.7 | 2.6 | 0.00 | 0.00 | 0.00 | 41 | 1013.1 |
| 20260503233909 | 58 | 298 | 2.6 | 4.3 | 0.00 | 0.00 | 0.00 | 39 | 1013.1 |
| 20260503233405 | 59 | 294 | 1.7 | 2.6 | 0.00 | 0.00 | 0.00 | 40 | 1013.2 |
| 20260503232901 | 59 | 8 | 2.6 | 2.6 | 0.00 | 0.00 | 0.00 | 39 | 1013.2 |
| 20260503232359 | 59 | 306 | 4.3 | 5.2 | 0.00 | 0.00 | 0.00 | 38 | 1013.4 |
| 20260503231856 | 59 | 347 | 3.5 | 4.3 | 0.00 | 0.00 | 0.00 | 38 | 1013.3 |
| 20260503231353 | 59 | 339 | 3.5 | 4.3 | 0.00 | 0.00 | 0.00 | 39 | 1013.1 |
| 20260503230849 | 59 | 324 | 2.6 | 5.2 | 0.00 | 0.00 | 0.00 | 38 | 1013.0 |
| 20260503230346 | 60 | 328 | 6.1 | 7.0 | 0.00 | 0.00 | 0.00 | 37 | 1013.1 |
| 20260503225844 | 60 | 277 | 5.2 | 7.0 | 0.00 | 0.00 | 0.00 | 37 | 1013.1 |
| 20260503225340 | 59 | 305 | 5.2 | 9.6 | 0.00 | 0.00 | 0.00 | 37 | 1013.2 |
| 20260503224836 | 60 | 326 | 8.7 | 12.2 | 0.00 | 0.00 | 0.00 | 37 | 1013.3 |
| 20260503224334 | 60 | 326 | 4.3 | 5.2 | 0.00 | 0.00 | 0.00 | 38 | 1013.1 |
| 20260503223831 | 60 | 31 | 6.1 | 7.8 | 0.00 | 0.00 | 0.00 | 36 | 1013.1 |
| 20260503223329 | 60 | 276 | 7.8 | 9.6 | 0.00 | 0.00 | 0.00 | 36 | 1013.1 |
| 20260503222824 | 60 | 346 | 7.0 | 10.4 | 0.00 | 0.00 | 0.00 | 36 | 1012.9 |
| 20260503222323 | 61 | 102 | 1.7 | 1.7 | 0.00 | 0.00 | 0.00 | 38 | 1013.1 |
| 20260503221820 | 60 | 358 | 4.3 | 5.2 | 0.00 | 0.00 | 0.00 | 37 | 1013.0 |
| 20260503221319 | 60 | 6 | 7.8 | 12.2 | 0.00 | 0.00 | 0.00 | 35 | 1013.0 |
| 20260503220815 | 60 | 5 | 9.6 | 17.4 | 0.00 | 0.00 | 0.00 | 36 | 1013.0 |
| 20260503220312 | 60 | 132 | 7.0 | 9.6 | 0.00 | 0.00 | 0.00 | 36 | 1013.2 |
| 20260503215808 | 60 | 332 | 4.3 | 5.2 | 0.00 | 0.00 | 0.00 | 36 | 1013.3 |
| 20260503215306 | 59 | 9 | 13.0 | 17.4 | 0.00 | 0.00 | 0.00 | 37 | 1013.2 |
| 20260503214804 | 60 | 327 | 11.3 | 14.8 | 0.00 | 0.00 | 0.00 | 36 | 1013.3 |
| 20260503214300 | 60 | 21 | 13.0 | 17.4 | 0.00 | 0.00 | 0.00 | 36 | 1013.2 |
| 20260503213758 | 60 | 12 | 9.6 | 13.0 | 0.00 | 0.00 | 0.00 | 36 | 1013.0 |
| 20260503213255 | 60 | 332 | 14.8 | 20.0 | 0.00 | 0.00 | 0.00 | 35 | 1013.0 |
| 20260503212752 | 59 | 323 | 6.1 | 9.6 | 0.00 | 0.00 | 0.00 | 38 | 1013.1 |
| 20260503212250 | 59 | 352 | 7.8 | 9.6 | 0.00 | 0.00 | 0.00 | 37 | 1012.9 |
| 20260503211747 | 59 | 324 | 13.0 | 17.4 | 0.00 | 0.00 | 0.00 | 37 | 1012.8 |
| 20260503211243 | 60 | 282 | 5.2 | 7.8 | 0.00 | 0.00 | 0.00 | 37 | 1012.9 |
| 20260503210738 | 60 | 303 | 9.6 | 16.5 | 0.00 | 0.00 | 0.00 | 36 | 1013.1 |
| 20260503210236 | 60 | 353 | 4.3 | 7.8 | 0.00 | 0.00 | 0.00 | 38 | 1013.1 |
| 20260503205731 | 60 | 342 | 5.2 | 7.0 | 0.00 | 0.00 | 0.00 | 37 | 1013.0 |
| 20260503205228 | 59 | 320 | 5.2 | 9.6 | 0.00 | 0.00 | 0.00 | 38 | 1012.9 |
| 20260503204724 | 59 | 0 | 10.4 | 13.0 | 0.00 | 0.00 | 0.00 | 37 | 1013.1 |
| 20260503204222 | 58 | 32 | 14.8 | 19.1 | 0.00 | 0.00 | 0.00 | 36 | 1013.2 |
| 20260503203719 | 60 | 356 | 6.1 | 7.8 | 0.00 | 0.00 | 0.00 | 36 | 1013.1 |
| 20260503203217 | 60 | 1 | 7.8 | 10.4 | 0.00 | 0.00 | 0.00 | 37 | 1013.1 |
| 20260503202714 | 59 | 0 | 8.7 | 10.4 | 0.00 | 0.00 | 0.00 | 38 | 1013.1 |
| 20260503202212 | 59 | 316 | 7.8 | 9.6 | 0.00 | 0.00 | 0.00 | 38 | 1013.0 |
| 20260503201709 | 59 | 304 | 9.6 | 13.0 | 0.00 | 0.00 | 0.00 | 36 | 1013.3 |
| 20260503201207 | 60 | 109 | 7.8 | 13.0 | 0.00 | 0.00 | 0.00 | 36 | 1013.1 |
| 20260503200703 | 58 | 323 | 6.1 | 10.4 | 0.00 | 0.00 | 0.00 | 38 | 1013.2 |
| 20260503200159 | 59 | 346 | 10.4 | 16.5 | 0.00 | 0.00 | 0.00 | 36 | 1013.4 |
| 20260503195656 | 59 | 4 | 1.7 | 2.6 | 0.00 | 0.00 | 0.00 | 41 | 1013.4 |
| 20260503195153 | 57 | 329 | 11.3 | 16.5 | 0.00 | 0.00 | 0.00 | 38 | 1013.4 |
| 20260503194650 | 57 | 25 | 7.0 | 7.8 | 0.00 | 0.00 | 0.00 | 39 | 1013.6 |
| 20260503194145 | 58 | 318 | 9.6 | 16.5 | 0.00 | 0.00 | 0.00 | 37 | 1013.5 |
| 20260503193643 | 58 | 326 | 11.3 | 16.5 | 0.00 | 0.00 | 0.00 | 38 | 1013.6 |
| 20260503193138 | 57 | 310 | 11.3 | 16.5 | 0.00 | 0.00 | 0.00 | 38 | 1013.6 |
| 20260503192634 | 57 | 348 | 11.3 | 13.0 | 0.00 | 0.00 | 0.00 | 37 | 1013.7 |
| 20260503192130 | 59 | 340 | 9.6 | 14.8 | 0.00 | 0.00 | 0.00 | 37 | 1013.8 |
| 20260503191627 | 59 | 49 | 1.7 | 2.6 | 0.00 | 0.00 | 0.00 | 37 | 1013.8 |
| 20260503191124 | 58 | 346 | 7.8 | 9.6 | 0.00 | 0.00 | 0.00 | 38 | 1013.8 |
| 20260503190621 | 57 | 331 | 7.8 | 10.4 | 0.00 | 0.00 | 0.00 | 37 | 1013.8 |
| 20260503190118 | 57 | 319 | 13.9 | 17.4 | 0.00 | 0.00 | 0.00 | 37 | 1013.8 |
| 20260503185614 | 57 | 332 | 16.5 | 17.4 | 0.00 | 0.00 | 0.00 | 37 | 1014.1 |
| 20260503185114 | 57 | 307 | 7.0 | 9.6 | 0.00 | 0.00 | 0.00 | 38 | 1014.3 |
| 20260503184610 | 57 | 350 | 12.2 | 14.8 | 0.00 | 0.00 | 0.00 | 38 | 1014.3 |
| 20260503184107 | 57 | 48 | 7.8 | 13.0 | 0.00 | 0.00 | 0.00 | 39 | 1014.5 |
| 20260503183603 | 57 | 8 | 8.7 | 13.0 | 0.00 | 0.00 | 0.00 | 38 | 1014.2 |
| 20260503183101 | 57 | 5 | 7.8 | 9.6 | 0.00 | 0.00 | 0.00 | 37 | 1014.5 |
| 20260503182559 | 56 | 353 | 9.6 | 14.8 | 0.00 | 0.00 | 0.00 | 38 | 1014.2 |
| 20260503182056 | 57 | 353 | 5.2 | 7.0 | 0.00 | 0.00 | 0.00 | 40 | 1014.3 |
| 20260503181553 | 57 | 0 | 5.2 | 9.6 | 0.00 | 0.00 | 0.00 | 39 | 1014.2 |
| 20260503181050 | 56 | 318 | 13.9 | 21.7 | 0.00 | 0.00 | 0.00 | 40 | 1014.5 |
| 20260503180547 | 56 | 303 | 8.7 | 10.4 | 0.00 | 0.00 | 0.00 | 40 | 1014.3 |
| 20260503180044 | 55 | 5 | 3.5 | 5.2 | 0.00 | 0.00 | 0.00 | 41 | 1014.5 |
| 20260503175541 | 55 | 343 | 13.0 | 19.1 | 0.00 | 0.00 | 0.00 | 40 | 1014.5 |
| 20260503175039 | 53 | 129 | 5.2 | 7.0 | 0.00 | 0.00 | 0.00 | 44 | 1014.7 |
| 20260503174536 | 56 | 344 | 13.0 | 19.1 | 0.00 | 0.00 | 0.00 | 42 | 1014.9 |
| 20260503174032 | 55 | 117 | 2.6 | 4.3 | 0.00 | 0.00 | 0.00 | 44 | 1014.6 |
| 20260503173527 | 54 | 23 | 4.3 | 5.2 | 0.00 | 0.00 | 0.00 | 44 | 1014.8 |
| 20260503173024 | 54 | 39 | 6.1 | 7.8 | 0.00 | 0.00 | 0.00 | 42 | 1014.7 |
| 20260503172521 | 55 | 16 | 6.1 | 7.8 | 0.00 | 0.00 | 0.00 | 42 | 1015.0 |
| 20260503172018 | 55 | 56 | 4.3 | 5.2 | 0.00 | 0.00 | 0.00 | 44 | 1014.6 |
| 20260503171515 | 53 | 321 | 9.6 | 14.8 | 0.00 | 0.00 | 0.00 | 43 | 1015.0 |
| 20260503171012 | 53 | 354 | 7.8 | 9.6 | 0.00 | 0.00 | 0.00 | 43 | 1014.7 |
| 20260503170508 | 53 | 302 | 19.1 | 22.6 | 0.00 | 0.00 | 0.00 | 42 | 1014.9 |
| 20260503150901 | 50 | 58 | 9.6 | 14.8 | 0.00 | 0.00 | 0.00 | 45 | 1015.7 |
| 20260503150357 | 50 | 24 | 13.0 | 17.4 | 0.00 | 0.00 | 0.00 | 43 | 1015.8 |
| 20260503131250 | 45 | 10 | 5.2 | 7.8 | 0.00 | 0.00 | 0.00 | 60 | 1016.1 |
| 20260503130748 | 45 | 346 | 9.6 | 12.2 | 0.00 | 0.00 | 0.00 | 59 | 1016.0 |
| 20260503130245 | 45 | 318 | 5.2 | 7.8 | 0.00 | 0.00 | 0.00 | 61 | 1016.1 |
| 20260503120211 | 43 | 271 | 3.5 | 5.2 | 0.00 | 0.00 | 0.00 | 67 | 1015.5 |
| 20260503110638 | 40 | 321 | 2.6 | 4.3 | 0.00 | 0.00 | 0.00 | 70 | 1015.1 |
| 20260503110136 | 40 | 333 | 6.1 | 7.8 | 0.00 | 0.00 | 0.00 | 70 | 1015.1 |